Location: Archemont
(49.1579°N, 1.7598°E)
Time: 08:25:04
(UTC+00:00)

Tiangong - Visible Passes

Search period start: 27 February 2024 00:00
Search period end: 08 March 2024 00:00
Orbit: 375 x 385 km, 41.5° (Epoch: 26 February)

Date Brightness Start Highest point End Pass type
(mag) Time Alt. Az. Time Alt. Az. Time Alt. Az.
29 Feb 0.3 18:50:11 10° S 18:50:49 10° SSE 18:51:09 10° SSE visible
01 Mar 0.1 19:23:39 10° SSW 19:25:05 16° S 19:25:05 16° S visible
02 Mar 0.2 18:22:59 10° SSW 18:24:39 14° SSE 18:26:19 10° SE visible
02 Mar 0.7 19:58:21 10° SW 19:58:53 13° SW 19:58:53 13° SW visible
03 Mar -0.3 18:57:12 10° SW 18:59:30 19° S 19:00:28 17° SSE visible
04 Mar -0.1 19:31:59 10° SW 19:34:02 19° SSW 19:34:02 19° SSW visible
05 Mar -0.2 18:30:34 10° SW 18:32:55 20° S 18:35:18 10° SE visible
05 Mar 0.8 20:07:14 10° SW 20:07:32 11° SW 20:07:32 11° SW visible
06 Mar 0.0 19:05:25 10° SW 19:07:34 17° S 19:08:52 14° SSE visible
07 Mar 0.6 19:41:07 10° SW 19:42:03 11° SSW 19:42:16 11° SSW visible
